Location: Newark
(40.3500°N, 15.2333°E)
Time: 11:34:48
(UTC+00:00)

Vanguard 1 - Pass Details

Date: 28 January 2020
Orbit: 650 x 3833 km, 34.2° (Epoch: 22 February)

Event Time Altitude Azimuth Distance (km) Brightness Sun altitude
Rises 16:16:12 0° 254° (WSW) 3,078 15.4 -1.6°
Reaches altitude 10° 16:18:41 10° 247° (WSW) 2,066 14.0 -2.0°
Maximum altitude 16:22:50 40° 177° (S) 964 10.3 -2.8°
Drops below altitude 10° 16:27:28 10° 107° (ESE) 2,300 11.5 -3.6°
Sets 16:30:22 0° 100° (E) 3,482 12.4 -4.1°
Enters shadow 16:30:27 - 100° (E) 3,518 12.4 -4.1°
